User: anonymous   Login
Location: Unspecified
(0.0000°N, 0.0000°E)
Time: 07:54:21
(UTC+00:00)
Language:

TATIANA - Orbit

View from above orbital plane
View from above orbital plane
View from above satellite
View from above satellite

Ground track
Ground track

The orbit data is extracted from the following two-line orbital elements,

1 28523U 05002C   21168.75543274  .00000060  00000-0  37011-4 0  9994
2 28523  82.9490 345.9186 0038952 141.0638 219.3342 13.87535774830768
Epoch (UTC): 17 June 2021 18:07:49
Eccentricity: 0.0038952
inclination: 82.9490°
perigee height: 909 km
apogee height: 966 km
right ascension of ascending node: 345.9186°
argument of perigee: 141.0638°
revolutions per day: 13.87535774
mean anomaly at epoch: 219.3342°
orbit number at epoch: 83076

The dashed part of the orbit path shows where the satellite is in the earth's shadow,  

DLR